Вернуться в каталог

YZ-1 R/B

АктивенMEO
NORAD 43625·ROCKET BODY·🇨🇳 China

Запущен Sep 19, 2018 с Xichang Satellite Launch Center

Loading…

Ближайшие Пролёты (ближайшие 24 часа)

TLE

СвежийSource: Space-Track

Эпоха: Sep 13, 2026, 11:39 UTC

1 43625U 18072D   26256.48544183 -.00000021  00000-0  00000+0 0  9999
2 43625  56.5101  69.0860 0109651  67.5766 293.6090  1.77481554 51757

Отслеживайте YZ-1 R/B в реальном времени с AllMySat

Download on the App Store